Vorticity
3 7 9 6 6 5 5 4 5 6 6 6 6 7 8 9 7 4 4 4 5 5 6 7 7 7 7 7 6 6 7 7 6 5 4 4 4 5 5 5 5 6 8
10 10 7 9 5 5 6 6 7 7 6 6 5 5 3 4 4 6 5 5 5 5 6 7 7 7 7 7 7 6 7 7 6 5 4 5 5 5 5 6 6 8 8
10 16 15 16 15 9 4 7 5 5 6 6 5 4 5 8 7 8 7 5 5 5 6 7 7 8 8 7 7 7 7 7 6 5 4 7 5 6 7 7 7 8 8
1 5 -7 -7 6 15 16 7 3 0 -0 4 12 6 3 3 12 8 -1 5 6 6 6 7 8 9 8 8 7 7 7 7 6 5 4 6 6 6 8 7 8 7 5
2 -15 16 5 10 13 14 2 1 -0 0 5 4 2 4 5 -3 6 7 8 8 7 6 7 8 9 9 8 7 8 7 7 6 5 6 7 7 7 7 5 4 3 4
13 -20 -18 9 7 4 14 2 -1 -9 -0 5 4 2 -4 -2 -0 6 13 10 7 6 6 8 9 9 9 8 8 8 7 6 5 5 6 6 6 7 6 5 4 5 7
11 22 -13 -1 -11 -1 26 3 -13 9 13 3 -0 5 12 6 2 11 10 9 8 8 7 9 9 9 8 8 8 7 6 5 5 6 7 8 7 5 4 4 5 6 8
7 3 18 -8 18 15 -37 -20 4 24 7 2 4 3 0 7 5 8 10 9 8 8 8 10 9 8 8 8 8 6 4 6 7 9 8 5 4 4 5 6 9 9 7
50 7 11 12 4 -21 -6 0 2 1 -1 8 7 7 6 5 4 10 11 12 9 7 9 10 8 9 9 7 5 5 7 8 8 5 5 4 4 6 10 9 9 7 7
6 21 27 19 22 23 12 14 2 4 10 13 6 4 3 5 10 13 13 10 8 9 10 9 9 8 7 5 6 8 9 8 5 4 1 8 10 8 9 8 8 8 8
1 8 23 15 18 9 2 10 13 12 11 6 5 5 7 9 11 14 11 8 8 9 10 9 7 6 5 8 9 8 5 5 3 -1 11 8 9 8 8 8 9 9 10
28 21 12 26 11 19 19 9 12 14 12 5 4 6 8 11 15 12 9 9 9 9 9 7 5 7 9 8 5 6 3 5 6 9 9 8 8 9 10 10 11 12 12
9 27 14 23 27 23 17 12 13 10 5 9 7 8 12 14 13 9 9 9 9 8 6 7 9 10 6 6 3 1 8 8 10 9 9 9 9 9 10 10 11 11 11
17 15 20 12 13 16 15 12 10 10 8 8 9 14 15 12 9 8 8 8 8 7 10 11 7 6 4 0 6 7 10 9 9 8 9 8 9 10 12 13 12 12 10
7 16 10 17 17 10 9 8 8 8 9 13 16 13 10 7 7 8 9 8 10 11 8 6 5 -1 5 7 9 9 9 8 9 8 10 11 12 12 12 12 10 9 10
4 4 14 10 13 15 14 15 15 16 16 14 10 7 7 8 9 9 10 11 9 6 7 -1 5 7 7 9 9 9 9 8 9 10 12 11 12 12 11 10 11 10 10
14 11 2 12 12 11 10 10 10 10 9 7 7 8 9 10 10 10 9 6 6 3 2 6 7 9 10 9 8 9 9 11 11 11 10 11 12 13 12 12 11 10 12
15 12 12 8 4 5 6 7 8 9 9 10 9 10 10 11 10 7 7 5 4 4 6 9 10 8 8 9 9 9 10 10 9 9 10 12 14 13 11 10 10 12 11
21 18 14 6 6 7 11 13 12 12 11 10 10 11 10 9 8 5 5 5 5 9 10 9 7 8 9 9 9 10 10 10 10 11 11 13 12 12 11 10 11 10 11
11 19 15 12 11 11 12 13 13 11 11 13 12 10 6 6 6 7 3 6 9 10 8 7 11 8 8 11 10 10 11 10 9 10 10 11 11 11 11 12 11 11 12
15 13 9 13 8 12 12 10 12 14 13 10 10 8 6 4 6 3 6 11 9 7 9 9 7 9 10 11 11 10 9 9 9 9 10 11 12 12 12 13 15 6 8
15 15 18 14 13 11 12 13 14 12 11 9 6 4 4 7 5 5 9 6 7 9 7 7 12 11 11 10 9 8 8 7 8 9 12 14 13 12 12 11 10 10 11
18 11 13 11 11 13 15 14 13 11 7 6 4 5 5 9 3 7 7 9 10 6 11 11 10 9 8 8 8 8 7 8 10 13 15 13 13 12 11 11 12 10 11
17 9 11 12 11 14 16 13 7 6 5 1 10 6 7 2 10 8 12 7 7 10 10 8 7 6 6 6 7 10 13 15 16 15 14 15 13 11 12 12 12 13 14
20 10 12 13 15 19 11 7 6 0 9 13 8 7 1 8 11 10 5 9 11 8 6 5 5 5 6 7 9 12 13 13 14 15 16 14 12 12 11 12 14 15 14
16 15 12 15 16 8 6 2 6 15 6 9 10 3 6 11 7 5 9 9 6 5 5 5 6 6 7 11 13 11 12 12 14 15 14 12 12 13 13 14 15 13 11
Height
3124 3125 3129 3133 3135 3137 3139 3142 3145 3148 3151 3153 3154 3156 3157 3160 3159 3160 3159 3159 3160 3159 3159 3159 3158 3157 3157 3157 3157 3157 3157 3156 3155 3154 3153 3151 3150 3148 3147 3145 3143 3141 3139
3121 3123 3126 3129 3133 3136 3138 3139 3142 3145 3147 3149 3150 3152 3154 3155 3155 3157 3156 3156 3156 3156 3155 3155 3154 3153 3153 3153 3152 3152 3152 3152 3151 3150 3148 3147 3147 3144 3142 3140 3138 3136 3134
3117 3120 3122 3126 3130 3133 3134 3137 3138 3141 3143 3145 3146 3147 3149 3150 3152 3153 3153 3151 3151 3151 3151 3151 3150 3149 3148 3148 3148 3147 3147 3147 3146 3145 3145 3143 3142 3139 3137 3135 3132 3130 3128
3111 3115 3119 3123 3126 3129 3132 3134 3134 3136 3138 3140 3142 3143 3144 3147 3148 3147 3146 3147 3147 3147 3146 3145 3145 3144 3143 3143 3143 3142 3142 3141 3141 3140 3139 3137 3136 3134 3132 3130 3126 3124 3122
3107 3112 3113 3117 3121 3124 3126 3129 3131 3132 3134 3135 3136 3137 3140 3141 3141 3142 3142 3142 3142 3141 3141 3140 3139 3138 3138 3138 3137 3137 3137 3136 3135 3134 3132 3130 3128 3126 3124 3122 3121 3118 3116
3101 3105 3110 3112 3113 3117 3120 3124 3127 3128 3129 3130 3130 3130 3133 3135 3136 3137 3137 3136 3135 3135 3135 3135 3133 3132 3132 3132 3132 3131 3131 3130 3129 3127 3125 3123 3120 3118 3115 3111 3110 3108 3109
3093 3096 3101 3105 3108 3113 3116 3118 3121 3123 3125 3125 3124 3126 3127 3128 3130 3129 3129 3129 3129 3129 3129 3129 3127 3126 3126 3126 3125 3125 3124 3123 3121 3120 3118 3116 3113 3110 3106 3102 3097 3093 3092
3084 3088 3093 3097 3102 3106 3109 3112 3115 3114 3118 3118 3119 3121 3122 3122 3122 3122 3123 3123 3122 3122 3123 3122 3122 3120 3120 3120 3119 3118 3117 3116 3114 3112 3110 3107 3104 3101 3098 3093 3088 3082 3078
3076 3081 3085 3089 3094 3098 3101 3103 3106 3108 3109 3111 3111 3114 3114 3114 3114 3115 3116 3116 3116 3116 3116 3116 3116 3114 3113 3113 3112 3112 3110 3109 3107 3105 3103 3099 3095 3092 3087 3083 3078 3073 3064
3071 3073 3077 3081 3086 3090 3093 3095 3098 3100 3102 3103 3104 3106 3106 3106 3107 3108 3109 3109 3110 3109 3109 3109 3109 3108 3108 3108 3106 3105 3103 3102 3099 3097 3094 3090 3086 3082 3078 3073 3068 3063 3057
3063 3064 3066 3070 3075 3079 3083 3086 3089 3090 3093 3096 3097 3098 3098 3099 3100 3101 3102 3103 3103 3103 3103 3103 3103 3102 3102 3101 3099 3098 3096 3093 3090 3087 3084 3080 3076 3073 3068 3063 3058 3053 3047
3056 3056 3058 3061 3065 3068 3072 3076 3079 3082 3085 3088 3090 3091 3091 3092 3093 3095 3096 3096 3096 3097 3097 3097 3096 3096 3095 3094 3092 3090 3087 3085 3082 3078 3074 3070 3066 3062 3057 3053 3048 3043 3039
3053 3053 3053 3053 3055 3059 3064 3068 3071 3075 3079 3081 3083 3084 3084 3085 3087 3089 3090 3090 3090 3090 3091 3091 3090 3089 3088 3086 3084 3082 3079 3075 3072 3068 3064 3060 3056 3051 3046 3041 3037 3033 3029
3050 3049 3050 3051 3052 3055 3059 3063 3066 3069 3072 3074 3075 3076 3077 3079 3081 3082 3083 3083 3084 3085 3085 3084 3083 3082 3080 3078 3075 3072 3069 3066 3062 3058 3054 3049 3045 3040 3036 3031 3027 3022 3018
3046 3046 3046 3047 3049 3052 3054 3057 3059 3061 3064 3066 3067 3069 3071 3073 3075 3076 3077 3077 3078 3078 3078 3077 3076 3075 3072 3069 3066 3062 3059 3056 3053 3048 3044 3039 3035 3029 3024 3020 3015 3012 3008
3041 3042 3042 3043 3044 3046 3048 3050 3053 3055 3057 3060 3062 3064 3065 3067 3069 3070 3070 3071 3071 3071 3071 3070 3068 3066 3063 3060 3057 3054 3050 3047 3043 3039 3035 3029 3024 3019 3015 3010 3006 3001 2996
3034 3036 3037 3038 3039 3041 3043 3045 3047 3049 3051 3054 3056 3057 3059 3061 3062 3063 3064 3064 3065 3065 3064 3062 3060 3058 3055 3051 3048 3044 3040 3037 3033 3028 3023 3019 3014 3009 3005 3001 2996 2992 2987
3026 3028 3030 3032 3034 3036 3037 3039 3041 3043 3045 3047 3049 3051 3053 3055 3056 3057 3058 3058 3058 3056 3055 3054 3051 3049 3046 3042 3039 3035 3031 3026 3021 3017 3013 3008 3003 2999 2994 2991 2987 2983 2978
3022 3023 3024 3025 3027 3029 3031 3033 3035 3037 3039 3041 3043 3045 3047 3048 3049 3050 3051 3051 3050 3049 3047 3045 3043 3040 3037 3034 3030 3025 3021 3017 3012 3008 3004 2998 2993 2989 2984 2979 2974 2970 2966
3019 3018 3019 3021 3022 3024 3025 3027 3029 3031 3033 3035 3037 3039 3041 3041 3043 3043 3044 3044 3043 3041 3040 3037 3035 3032 3029 3024 3020 3015 3011 3008 3003 2999 2995 2989 2983 2978 2972 2967 2962 2958 2955
3014 3014 3014 3015 3016 3017 3019 3020 3022 3024 3026 3028 3031 3033 3035 3036 3037 3038 3038 3037 3036 3034 3032 3030 3026 3022 3018 3015 3011 3007 3002 2997 2993 2989 2984 2978 2972 2967 2962 2957 2952 2947 2943
3007 3007 3007 3009 3010 3011 3012 3014 3016 3018 3021 3023 3025 3027 3029 3030 3031 3030 3030 3029 3028 3026 3024 3021 3018 3014 3010 3006 3002 2997 2992 2987 2981 2977 2972 2966 2961 2956 2951 2946 2943 2938 2933
3000 3000 3001 3002 3003 3004 3006 3008 3010 3013 3015 3017 3019 3020 3022 3023 3023 3023 3022 3021 3020 3018 3015 3012 3009 3006 3002 2997 2992 2987 2982 2976 2970 2966 2960 2954 2950 2945 2940 2936 2933 2928 2924
2993 2994 2994 2995 2997 2998 3000 3002 3005 3007 3008 3010 3012 3014 3015 3016 3017 3017 3016 3014 3012 3009 3007 3004 3000 2996 2992 2987 2982 2977 2972 2966 2961 2956 2950 2945 2941 2935 2931 2927 2923 2918 2914
2986 2987 2988 2989 2990 2992 2994 2996 2998 2999 3001 3004 3006 3007 3009 3010 3010 3009 3008 3006 3004 3001 2998 2994 2990 2985 2982 2976 2971 2965 2959 2954 2949 2943 2939 2935 2930 2926 2922 2918 2914 2910 2906
2979 2979 2980 2982 2983 2985 2987 2988 2990 2992 2995 2997 2999 3001 3002 3003 3002 3001 2999 2997 2995 2992 2988 2984 2980 2976 2970 2966 2961 2956 2951 2946 2940 2935 2930 2926 2922 2918 2913 2909 2905 2901 2898